SCP
0 0 0 0 0 0 0 0 0 0 0 0 0 0 0 0 0 0 0 0 0 0 0 0 0 0 0 0 0 0 0 0 0 0 0 0 0 0 0 0 0 0 0
0 0 0 0 0 0 0 0 0 0 0 0 0 0 0 0 0 0 0 0 0 0 0 0 0 0 0 0 0 0 0 0 0 0 0 0 0 0 0 0 0 0 0
0 0 0 0 0 0 0 0 0 0 0 0 0 0 0 0 0 0 0 0 0 0 0 0 0 0 0 0 0 0 0 0 0 0 0 0 0 0 0 0 0 0 0
0 0 0 0 0 0 0 0 0 0 0 0 0 0 0 0 0 0 0 0 0 0 0 0 0 0 0 0 0 0 0 0 0 0 0 0 0 0 0 0 0 0 0
0 0 0 0 0 0 0 0 0 0 0 0 0 0 0 0 0 0 0 0 0 0 0 0 0 0 0 0 0 0 0 0 0 0 0 0 0 0 0 0 0 0 0
0 0 0 0 0 0 0 0 0 0 0 0 0 0 0 0 0 0 0 0 0 0 0 0 0 0 0 0 0 0 0 0 0 0 0 0 0 0 0 0 0 0 0
0 0 0 0 0 0 0 0 0 0 0 0 0 0 0 0 0 0 0 0 0 0 0 0 0 0 0 0 0 0 0 0 0 0 0 0 0 0 0 0 0 0 0
0 0 0 0 0 0 0 0 0 0 0 0 0 0 0 0 0 0 0 0 0 0 0 0 0 0 0 0 0 0 0 0 0 0 0 0 0 0 0 0 0 0 0
0 0 0 0 0 0 0 0 0 0 0 0 0 0 0 0 0 0 0 0 0 0 0 0 0 0 0 0 0 0 0 0 0 0 0 0 0 0 0 0 0 0 0
0 0 0 0 0 0 0 0 0 0 0 0 0 0 0 0 0 0 0 0 0 0 0 0 0 0 0 0 0 0 0 0 0 0 0 0 0 0 0 0 0 0 0
0 0 0 0 0 0 0 0 0 0 0 0 0 0 0 0 0 0 0 0 0 0 0 0 0 0 0 0 0 0 0 0 0 0 0 0 0 0 0 0 0 0 0
0 0 0 0 0 0 0 0 0 0 0 0 0 0 0 0 0 0 0 0 0 0 0 0 0 0 0 0 0 0 0 0 0 0 0 0 0 0 0 0 0 0 0
0 0 0 0 0 0 0 0 0 0 0 0 0 0 0 0 0 0 0 0 0 0 0 0 0 0 0 0 0 0 0 0 0 0 0 0 0 0 0 0 0 0 0
0 0 0 0 0 0 0 0 0 0 0 0 0 0 0 0 0 0 0 0 0 0 0 0 0 0 0 0 0 0 0 0 0 0 0 0 0 0 0 0 0 0 0
0 0 0 0 0 0 0 0 0 0 0 0 0 0 0 0 0 0 0 0 0 0 0 0 0 0 0 0 0 0 0 0 0 0 0 0 0 0 0 0 0 0 0
0 0 0 0 0 0 0 0 0 0 0 0 0 0 0 0 0 0 0 0 0 0 0 0 0 0 0 0 0 0 0 0 0 0 0 0 0 0 0 0 0 0 0
0 0 0 0 0 0 0 0 0 0 0 0 0 0 0 0 0 0 0 0 0 0 0 0 0 0 0 0 0 0 0 0 0 0 0 0 0 0 0 0 0 0 0
0 0 0 0 0 0 0 0 0 0 0 0 0 0 0 0 0 0 0 0 0 0 0 0 0 0 0 0 0 0 0 0 0 0 0 0 0 0 0 0 0 0 0
0 0 0 0 0 0 0 0 0 0 0 0 0 0 0 0 0 0 0 0 0 0 0 0 0 0 0 0 0 0 0 0 0 0 0 0 0 0 0 0 0 0 0
0 0 0 0 0 0 0 0 0 0 0 0 0 0 0 0 0 0 0 0 0 0 0 0 0 0 0 0 0 0 0 0 0 0 0 0 0 0 0 0 0 0 0
0 0 0 0 0 0 0 0 0 0 0 0 0 0 0 0 0 0 0 0 0 0 0 0 0 0 0 0 0 0 0 0 0 0 0 0 0 0 0 0 0 0 0
0 0 0 0 0 0 0 0 0 0 0 0 0 0 0 0 0 0 0 0 0 0 0 0 0 0 0 0 0 0 0 0 0 0 0 0 0 0 0 0 0 0 0
0 0 0 0 0 0 0 0 0 0 0 0 0 0 0 0 0 0 0 0 0 0 0 0 0 0 0 0 0 0 0 0 0 0 0 0 0 0 0 0 0 0 0
0 0 0 0 0 0 0 0 0 0 0 0 0 0 0 0 0 0 0 0 0 0 0 0 0 0 0 0 0 0 0 0 0 0 0 0 0 0 0 0 0 0 0
0 0 0 0 0 0 0 0 0 0 0 0 0 0 0 0 0 0 0 0 0 0 0 0 0 0 0 0 0 0 0 0 0 0 0 0 0 0 0 0 0 0 0
0 0 0 0 0 0 0 0 0 0 0 0 0 0 0 0 0 0 0 0 0 0 0 0 0 0 0 0 0 0 0 0 0 0 0 0 0 0 0 0 0 0 0
Wind_Speed_500mb
35 41 47 53 52 52 55 60 59 55 55 57 55 49 49 45 45 43 40 39 37 31 25 18 16 11 11 14 17 17 19 21 17 14 6 4 4 5 3 5 15 22 21
38 42 49 54 56 56 59 64 65 61 62 61 57 52 50 48 47 49 46 42 39 33 28 27 24 22 20 20 22 19 21 21 21 15 7 9 4 4 6 4 17 21 20
43 46 52 61 64 67 66 68 72 71 70 66 60 57 50 49 46 49 46 49 45 37 38 36 34 31 30 28 27 23 24 28 23 25 12 7 6 10 13 9 16 17 18
50 48 55 60 73 77 71 68 70 75 74 70 72 72 71 69 64 56 55 51 44 40 42 41 40 37 34 31 32 30 32 30 29 27 21 22 16 9 7 13 14 15 18
59 57 63 72 76 79 85 84 80 81 80 81 81 80 78 73 63 58 55 53 44 42 45 45 44 43 40 37 38 37 37 34 31 33 23 22 16 14 11 9 10 11 15
71 67 63 65 72 78 82 88 90 91 90 88 88 89 86 79 71 65 60 62 50 50 48 43 46 43 42 44 42 42 42 38 37 34 29 25 21 17 14 11 8 7 10
69 72 72 72 79 81 87 89 93 96 97 97 94 93 92 85 81 75 70 66 64 64 56 48 45 48 52 52 50 49 46 42 43 37 33 28 23 19 14 11 10 7 7
49 62 66 76 88 83 86 92 96 96 99 99 99 98 98 95 90 82 73 76 70 70 64 56 49 43 43 48 52 50 48 46 44 39 36 29 24 20 16 11 5 4 5
37 42 52 66 85 90 87 91 96 97 97 98 97 101 104 100 96 89 83 79 77 73 74 65 58 51 43 43 48 50 48 47 46 42 36 32 26 21 16 10 4 3 1
33 35 41 49 64 76 85 89 93 99 100 98 98 98 101 101 96 92 87 85 80 79 70 75 67 59 55 49 45 49 52 48 48 43 39 33 27 22 18 12 7 6 10
15 20 30 40 47 56 68 83 90 93 99 100 99 98 97 97 96 96 94 88 86 79 74 75 72 67 61 58 50 47 52 51 50 45 40 33 27 24 20 14 9 7 11
19 20 21 28 36 46 49 59 73 80 92 99 95 96 99 98 99 98 95 89 90 82 79 78 81 76 67 60 56 49 52 56 52 47 40 34 30 26 21 15 11 9 11
30 33 35 26 21 34 45 53 57 67 78 84 91 93 97 100 101 96 94 92 90 82 78 77 88 81 72 66 62 50 54 59 53 46 40 36 32 28 21 16 14 13 14
33 34 35 37 32 29 34 45 53 58 66 73 85 90 95 94 90 88 84 82 81 80 76 77 83 83 73 73 64 55 61 60 54 48 43 38 34 30 23 18 16 15 17
34 34 34 39 44 43 38 37 42 48 54 59 66 72 81 77 80 80 77 73 73 71 73 77 83 87 79 76 65 60 65 62 56 49 43 39 36 30 23 20 18 17 18
34 40 42 50 50 54 49 39 37 40 43 48 54 61 70 70 74 75 72 71 72 73 72 76 89 87 90 80 54 64 65 60 55 48 44 41 37 31 26 23 20 20 22
40 46 58 53 59 60 52 43 36 37 39 43 50 54 58 62 66 70 72 74 72 76 71 76 84 85 82 61 58 65 62 57 53 47 45 42 38 31 27 24 21 21 28
49 48 56 65 65 65 54 41 38 38 37 44 47 51 56 60 64 67 68 65 71 72 79 81 85 89 69 64 65 66 63 57 53 48 45 42 38 33 27 24 20 27 34
46 51 61 65 58 53 49 39 39 41 39 42 43 45 48 50 51 53 57 57 59 69 74 77 82 71 63 67 70 66 64 59 54 51 48 45 39 32 26 21 27 41 34
25 24 30 30 33 33 33 33 34 38 38 38 39 41 42 42 43 45 49 52 59 67 71 77 81 72 69 70 69 67 65 61 57 55 49 43 36 29 20 21 43 43 38
23 21 18 17 17 19 21 23 24 27 28 30 35 38 40 40 39 43 50 56 54 53 69 74 73 66 70 70 71 67 65 61 57 52 47 42 34 22 21 38 51 46 46
10 11 10 11 13 13 10 11 13 16 23 28 34 37 39 43 39 42 49 56 60 67 71 73 69 72 72 74 69 66 63 59 54 49 42 36 25 24 27 50 52 53 49
21 20 20 19 17 18 17 12 11 12 16 22 28 34 37 41 45 46 52 58 64 70 73 74 74 74 76 75 73 66 61 56 51 45 38 29 30 32 52 58 58 53 50
20 20 17 17 18 19 20 20 18 16 16 18 22 27 35 39 43 49 56 63 71 74 76 76 77 78 79 78 74 67 58 53 49 42 36 34 35 49 58 61 54 54 53
15 16 18 21 23 22 21 19 21 24 25 23 21 23 29 35 42 49 55 64 68 71 74 76 78 80 82 75 63 57 55 49 43 38 36 40 55 63 61 53 53 54 53
13 12 13 14 16 17 20 24 25 25 26 26 25 26 29 33 38 46 52 61 65 65 68 70 72 71 65 57 52 46 43 43 44 42 42 57 61 59 54 53 57 56 52
Wind_Direction_500mb
231 224 213 206 206 207 205 212 212 211 211 213 217 216 222 226 229 232 229 235 242 244 247 252 257 271 240 264 273 281 290 297 302 328 304 193 189 165 42 75 6 1 5
230 223 214 210 208 209 210 212 216 217 219 221 224 229 234 236 238 238 237 234 243 244 246 248 252 254 261 273 276 280 287 287 293 290 294 190 208 224 275 1 359 2 5
236 225 218 213 211 212 214 214 219 221 223 225 228 228 232 235 233 234 238 238 242 243 245 247 249 253 260 267 264 267 272 281 277 277 248 220 200 212 257 296 354 3 7
236 228 225 219 217 217 216 218 219 222 226 226 228 230 231 234 237 238 238 242 242 242 241 246 250 254 257 253 255 264 270 270 273 271 257 234 223 180 181 298 331 351 3
230 230 223 227 225 223 223 222 223 225 227 228 229 231 231 235 240 242 238 245 240 239 242 244 244 249 247 252 256 260 269 266 252 256 253 238 242 244 238 220 282 339 349
219 226 229 228 228 227 227 228 228 229 230 230 232 233 235 235 235 235 235 236 239 242 246 251 251 248 248 257 257 261 261 258 255 252 242 235 236 234 238 243 266 306 323
223 223 225 226 232 228 231 230 231 233 233 234 234 237 239 240 238 239 238 239 236 234 243 249 254 255 254 257 255 256 255 249 255 243 234 235 236 243 239 226 230 262 289
231 230 228 227 238 237 236 234 233 233 234 237 239 239 241 240 241 241 241 246 244 241 243 247 253 255 256 252 252 249 246 249 250 233 227 227 231 233 226 225 233 304 322
242 236 234 233 238 242 239 239 237 238 236 238 239 240 241 241 240 242 241 243 248 246 242 241 238 238 242 253 253 249 243 248 238 225 227 227 226 224 223 228 258 2 310
254 253 252 245 244 248 247 242 241 240 240 239 240 242 242 244 243 242 239 241 245 247 245 237 236 233 239 237 250 249 245 241 229 225 225 226 227 220 217 225 243 301 333
302 269 263 262 260 251 249 244 242 243 243 242 242 242 243 243 242 241 240 240 241 248 245 237 237 238 238 233 232 246 246 236 223 224 225 227 226 221 220 229 238 277 320
20 7 328 280 269 252 253 252 250 247 245 244 245 243 243 242 242 242 242 242 245 246 242 237 235 235 233 231 230 245 241 228 224 224 225 228 226 222 229 241 255 282 314
360 359 357 353 292 275 263 254 251 250 245 243 244 242 241 241 242 243 243 244 244 244 239 236 235 232 231 229 228 245 236 223 222 224 226 227 223 223 232 248 266 286 309
325 342 346 348 340 326 294 273 264 252 246 242 240 239 239 238 241 242 244 243 240 239 242 236 235 231 228 226 229 235 226 220 222 223 226 225 222 225 235 245 261 281 304
304 308 320 332 337 329 319 304 280 266 256 251 242 238 243 242 241 242 241 242 238 240 240 234 227 228 222 223 227 233 222 220 221 222 225 223 221 227 237 246 257 274 296
287 295 303 311 315 324 316 307 292 275 264 254 247 242 243 245 246 243 241 239 235 239 238 232 240 222 227 220 226 227 221 221 221 223 222 222 222 228 235 244 256 277 300
288 289 301 302 310 308 311 298 286 274 263 256 254 251 252 251 249 249 246 243 240 235 233 235 223 235 216 221 230 219 221 222 223 223 222 222 223 228 234 243 259 285 294
286 293 296 300 301 295 297 290 279 269 260 257 257 258 259 258 255 250 246 239 235 233 232 232 223 219 218 227 219 217 220 220 223 223 223 223 225 227 234 246 268 294 287
283 284 288 288 286 283 283 273 273 262 256 255 258 262 263 261 257 251 244 239 231 228 233 218 222 218 223 224 218 217 219 221 224 224 224 224 224 227 239 255 298 279 282
285 301 309 302 290 280 277 278 273 262 259 259 257 256 258 258 256 256 251 248 242 233 234 215 217 222 225 217 218 219 221 223 223 223 224 224 225 232 250 300 280 278 281
313 318 323 321 305 290 289 289 284 278 271 264 265 259 255 251 246 253 252 251 238 230 222 224 221 219 220 219 221 221 223 226 227 226 225 223 226 239 279 285 274 279 279
350 0 17 20 3 343 342 328 323 293 280 273 266 261 258 256 250 243 249 251 243 235 231 226 221 220 218 218 221 223 224 226 227 227 224 223 230 256 282 274 275 279 281
58 47 41 29 24 16 7 360 339 311 294 282 275 269 264 257 254 253 246 246 243 237 231 226 225 223 219 219 222 223 224 225 224 222 218 225 251 279 286 267 272 278 280
53 53 47 38 26 15 2 349 334 317 301 295 288 278 271 265 260 255 252 249 245 238 234 231 227 224 224 225 225 225 224 222 218 213 220 246 276 291 270 267 272 277 277
49 32 21 13 6 1 352 341 329 318 306 297 296 288 277 271 264 260 256 255 251 248 245 238 233 229 228 231 233 231 226 219 209 219 243 266 278 274 263 267 271 272 273
48 32 17 6 360 352 343 337 332 325 320 316 310 302 293 281 273 264 258 256 254 250 247 242 242 240 239 239 235 226 214 209 225 238 262 270 272 263 265 271 271 269 272
Wind_Speed_850mb
35 41 47 53 52 52 55 60 59 55 55 57 55 49 49 45 45 43 40 39 37 31 25 18 16 11 11 14 17 17 19 21 17 14 6 4 4 5 3 5 15 22 21
38 42 49 54 56 56 59 64 65 61 62 61 57 52 50 48 47 49 46 42 39 33 28 27 24 22 20 20 22 19 21 21 21 15 7 9 4 4 6 4 17 21 20
43 46 52 61 64 67 66 68 72 71 70 66 60 57 50 49 46 49 46 49 45 37 38 36 34 31 30 28 27 23 24 28 23 25 12 7 6 10 13 9 16 17 18
50 48 55 60 73 77 71 68 70 75 74 70 72 72 71 69 64 56 55 51 44 40 42 41 40 37 34 31 32 30 32 30 29 27 21 22 16 9 7 13 14 15 18
59 57 63 72 76 79 85 84 80 81 80 81 81 80 78 73 63 58 55 53 44 42 45 45 44 43 40 37 38 37 37 34 31 33 23 22 16 14 11 9 10 11 15
71 67 63 65 72 78 82 88 90 91 90 88 88 89 86 79 71 65 60 62 50 50 48 43 46 43 42 44 42 42 42 38 37 34 29 25 21 17 14 11 8 7 10
69 72 72 72 79 81 87 89 93 96 97 97 94 93 92 85 81 75 70 66 64 64 56 48 45 48 52 52 50 49 46 42 43 37 33 28 23 19 14 11 10 7 7
49 62 66 76 88 83 86 92 96 96 99 99 99 98 98 95 90 82 73 76 70 70 64 56 49 43 43 48 52 50 48 46 44 39 36 29 24 20 16 11 5 4 5
37 42 52 66 85 90 87 91 96 97 97 98 97 101 104 100 96 89 83 79 77 73 74 65 58 51 43 43 48 50 48 47 46 42 36 32 26 21 16 10 4 3 1
33 35 41 49 64 76 85 89 93 99 100 98 98 98 101 101 96 92 87 85 80 79 70 75 67 59 55 49 45 49 52 48 48 43 39 33 27 22 18 12 7 6 10
15 20 30 40 47 56 68 83 90 93 99 100 99 98 97 97 96 96 94 88 86 79 74 75 72 67 61 58 50 47 52 51 50 45 40 33 27 24 20 14 9 7 11
19 20 21 28 36 46 49 59 73 80 92 99 95 96 99 98 99 98 95 89 90 82 79 78 81 76 67 60 56 49 52 56 52 47 40 34 30 26 21 15 11 9 11
30 33 35 26 21 34 45 53 57 67 78 84 91 93 97 100 101 96 94 92 90 82 78 77 88 81 72 66 62 50 54 59 53 46 40 36 32 28 21 16 14 13 14
33 34 35 37 32 29 34 45 53 58 66 73 85 90 95 94 90 88 84 82 81 80 76 77 83 83 73 73 64 55 61 60 54 48 43 38 34 30 23 18 16 15 17
34 34 34 39 44 43 38 37 42 48 54 59 66 72 81 77 80 80 77 73 73 71 73 77 83 87 79 76 65 60 65 62 56 49 43 39 36 30 23 20 18 17 18
34 40 42 50 50 54 49 39 37 40 43 48 54 61 70 70 74 75 72 71 72 73 72 76 89 87 90 80 54 64 65 60 55 48 44 41 37 31 26 23 20 20 22
40 46 58 53 59 60 52 43 36 37 39 43 50 54 58 62 66 70 72 74 72 76 71 76 84 85 82 61 58 65 62 57 53 47 45 42 38 31 27 24 21 21 28
49 48 56 65 65 65 54 41 38 38 37 44 47 51 56 60 64 67 68 65 71 72 79 81 85 89 69 64 65 66 63 57 53 48 45 42 38 33 27 24 20 27 34
46 51 61 65 58 53 49 39 39 41 39 42 43 45 48 50 51 53 57 57 59 69 74 77 82 71 63 67 70 66 64 59 54 51 48 45 39 32 26 21 27 41 34
25 24 30 30 33 33 33 33 34 38 38 38 39 41 42 42 43 45 49 52 59 67 71 77 81 72 69 70 69 67 65 61 57 55 49 43 36 29 20 21 43 43 38
23 21 18 17 17 19 21 23 24 27 28 30 35 38 40 40 39 43 50 56 54 53 69 74 73 66 70 70 71 67 65 61 57 52 47 42 34 22 21 38 51 46 46
10 11 10 11 13 13 10 11 13 16 23 28 34 37 39 43 39 42 49 56 60 67 71 73 69 72 72 74 69 66 63 59 54 49 42 36 25 24 27 50 52 53 49
21 20 20 19 17 18 17 12 11 12 16 22 28 34 37 41 45 46 52 58 64 70 73 74 74 74 76 75 73 66 61 56 51 45 38 29 30 32 52 58 58 53 50
20 20 17 17 18 19 20 20 18 16 16 18 22 27 35 39 43 49 56 63 71 74 76 76 77 78 79 78 74 67 58 53 49 42 36 34 35 49 58 61 54 54 53
15 16 18 21 23 22 21 19 21 24 25 23 21 23 29 35 42 49 55 64 68 71 74 76 78 80 82 75 63 57 55 49 43 38 36 40 55 63 61 53 53 54 53
13 12 13 14 16 17 20 24 25 25 26 26 25 26 29 33 38 46 52 61 65 65 68 70 72 71 65 57 52 46 43 43 44 42 42 57 61 59 54 53 57 56 52
Wind_Direction_850mb
231 224 213 206 206 207 205 212 212 211 211 213 217 216 222 226 229 232 229 235 242 244 247 252 257 271 240 264 273 281 290 297 302 328 304 193 189 165 42 75 6 1 5
230 223 214 210 208 209 210 212 216 217 219 221 224 229 234 236 238 238 237 234 243 244 246 248 252 254 261 273 276 280 287 287 293 290 294 190 208 224 275 1 359 2 5
236 225 218 213 211 212 214 214 219 221 223 225 228 228 232 235 233 234 238 238 242 243 245 247 249 253 260 267 264 267 272 281 277 277 248 220 200 212 257 296 354 3 7
236 228 225 219 217 217 216 218 219 222 226 226 228 230 231 234 237 238 238 242 242 242 241 246 250 254 257 253 255 264 270 270 273 271 257 234 223 180 181 298 331 351 3
230 230 223 227 225 223 223 222 223 225 227 228 229 231 231 235 240 242 238 245 240 239 242 244 244 249 247 252 256 260 269 266 252 256 253 238 242 244 238 220 282 339 349
219 226 229 228 228 227 227 228 228 229 230 230 232 233 235 235 235 235 235 236 239 242 246 251 251 248 248 257 257 261 261 258 255 252 242 235 236 234 238 243 266 306 323
223 223 225 226 232 228 231 230 231 233 233 234 234 237 239 240 238 239 238 239 236 234 243 249 254 255 254 257 255 256 255 249 255 243 234 235 236 243 239 226 230 262 289
231 230 228 227 238 237 236 234 233 233 234 237 239 239 241 240 241 241 241 246 244 241 243 247 253 255 256 252 252 249 246 249 250 233 227 227 231 233 226 225 233 304 322
242 236 234 233 238 242 239 239 237 238 236 238 239 240 241 241 240 242 241 243 248 246 242 241 238 238 242 253 253 249 243 248 238 225 227 227 226 224 223 228 258 2 310
254 253 252 245 244 248 247 242 241 240 240 239 240 242 242 244 243 242 239 241 245 247 245 237 236 233 239 237 250 249 245 241 229 225 225 226 227 220 217 225 243 301 333
302 269 263 262 260 251 249 244 242 243 243 242 242 242 243 243 242 241 240 240 241 248 245 237 237 238 238 233 232 246 246 236 223 224 225 227 226 221 220 229 238 277 320
20 7 328 280 269 252 253 252 250 247 245 244 245 243 243 242 242 242 242 242 245 246 242 237 235 235 233 231 230 245 241 228 224 224 225 228 226 222 229 241 255 282 314
360 359 357 353 292 275 263 254 251 250 245 243 244 242 241 241 242 243 243 244 244 244 239 236 235 232 231 229 228 245 236 223 222 224 226 227 223 223 232 248 266 286 309
325 342 346 348 340 326 294 273 264 252 246 242 240 239 239 238 241 242 244 243 240 239 242 236 235 231 228 226 229 235 226 220 222 223 226 225 222 225 235 245 261 281 304
304 308 320 332 337 329 319 304 280 266 256 251 242 238 243 242 241 242 241 242 238 240 240 234 227 228 222 223 227 233 222 220 221 222 225 223 221 227 237 246 257 274 296
287 295 303 311 315 324 316 307 292 275 264 254 247 242 243 245 246 243 241 239 235 239 238 232 240 222 227 220 226 227 221 221 221 223 222 222 222 228 235 244 256 277 300
288 289 301 302 310 308 311 298 286 274 263 256 254 251 252 251 249 249 246 243 240 235 233 235 223 235 216 221 230 219 221 222 223 223 222 222 223 228 234 243 259 285 294
286 293 296 300 301 295 297 290 279 269 260 257 257 258 259 258 255 250 246 239 235 233 232 232 223 219 218 227 219 217 220 220 223 223 223 223 225 227 234 246 268 294 287
283 284 288 288 286 283 283 273 273 262 256 255 258 262 263 261 257 251 244 239 231 228 233 218 222 218 223 224 218 217 219 221 224 224 224 224 224 227 239 255 298 279 282
285 301 309 302 290 280 277 278 273 262 259 259 257 256 258 258 256 256 251 248 242 233 234 215 217 222 225 217 218 219 221 223 223 223 224 224 225 232 250 300 280 278 281
313 318 323 321 305 290 289 289 284 278 271 264 265 259 255 251 246 253 252 251 238 230 222 224 221 219 220 219 221 221 223 226 227 226 225 223 226 239 279 285 274 279 279
350 0 17 20 3 343 342 328 323 293 280 273 266 261 258 256 250 243 249 251 243 235 231 226 221 220 218 218 221 223 224 226 227 227 224 223 230 256 282 274 275 279 281
58 47 41 29 24 16 7 360 339 311 294 282 275 269 264 257 254 253 246 246 243 237 231 226 225 223 219 219 222 223 224 225 224 222 218 225 251 279 286 267 272 278 280
53 53 47 38 26 15 2 349 334 317 301 295 288 278 271 265 260 255 252 249 245 238 234 231 227 224 224 225 225 225 224 222 218 213 220 246 276 291 270 267 272 277 277
49 32 21 13 6 1 352 341 329 318 306 297 296 288 277 271 264 260 256 255 251 248 245 238 233 229 228 231 233 231 226 219 209 219 243 266 278 274 263 267 271 272 273
48 32 17 6 360 352 343 337 332 325 320 316 310 302 293 281 273 264 258 256 254 250 247 242 242 240 239 239 235 226 214 209 225 238 262 270 272 263 265 271 271 269 272